LHA2141 EDDP-LIMJ

Flight info

Callsign LHA2141
Flight time N/A
Altitude 25000
Route GOLA2Q GOLAT T202 TABAT M736 RDG/N0331F240 M736 DOSEL/N0311F250 M736 LIZUM N503 LIKDA DCT BAKOR DCT OSKOR DCT MONEB
Aircraft DH8D/M-SDE1E2FGIJ1RWYZ/S

Departure

Time N/A
Airport Leipzig/Halle Airport (EDDP)

Arrival

Time 2026-05-06 09:57
Airport Genoa Cristoforo Colombo Airport (LIMJ)
Time Latitude Longitude Altitude Speed Heading
2026-05-06 09:15 46.17529 10.98832 24912 ft 293 kts 236°
2026-05-06 09:15 46.16213 10.96617 24912 ft 293 kts 236°
2026-05-06 09:15 46.14896 10.94403 24912 ft 293 kts 236°
2026-05-06 09:15 46.13571 10.92177 24911 ft 293 kts 236°
2026-05-06 09:16 46.12234 10.89930 24912 ft 293 kts 236°
2026-05-06 09:16 46.10915 10.87718 24913 ft 293 kts 236°
2026-05-06 09:16 46.09586 10.85489 24912 ft 293 kts 236°
2026-05-06 09:16 46.08264 10.83276 24911 ft 293 kts 236°
2026-05-06 09:17 46.06941 10.81061 24911 ft 294 kts 235°
2026-05-06 09:17 46.05595 10.78810 24911 ft 294 kts 235°
2026-05-06 09:17 46.04278 10.76610 24910 ft 294 kts 235°
2026-05-06 09:17 46.02938 10.74373 24908 ft 294 kts 235°
2026-05-06 09:18 46.01611 10.72159 24905 ft 294 kts 235°
2026-05-06 09:18 46.00274 10.69929 24902 ft 294 kts 235°
2026-05-06 09:18 45.98945 10.67716 24901 ft 294 kts 235°
2026-05-06 09:18 45.97611 10.65496 24898 ft 295 kts 235°
2026-05-06 09:19 45.96262 10.63252 24896 ft 295 kts 235°
2026-05-06 09:19 45.94924 10.61029 24893 ft 295 kts 235°
2026-05-06 09:19 45.93582 10.58801 24889 ft 295 kts 235°
2026-05-06 09:19 45.92251 10.56593 24888 ft 295 kts 235°
2026-05-06 09:20 45.90904 10.54359 24888 ft 295 kts 235°
2026-05-06 09:20 45.89568 10.52146 24894 ft 295 kts 235°
2026-05-06 09:20 45.88225 10.49925 24905 ft 295 kts 235°
2026-05-06 09:20 45.86881 10.47703 24916 ft 294 kts 235°
2026-05-06 09:21 45.85548 10.45501 24926 ft 294 kts 235°
2026-05-06 09:21 45.84213 10.43298 24937 ft 294 kts 235°
2026-05-06 09:21 45.82880 10.41099 24947 ft 293 kts 235°
2026-05-06 09:21 45.81535 10.38882 24958 ft 293 kts 235°
2026-05-06 09:22 45.80213 10.36705 24969 ft 293 kts 235°
2026-05-06 09:22 45.78939 10.34609 24978 ft 292 kts 234°
2026-05-06 09:22 45.77534 10.32299 24990 ft 292 kts 234°
2026-05-06 09:22 45.76191 10.30091 24998 ft 293 kts 234°
2026-05-06 09:23 45.74855 10.27897 24998 ft 293 kts 234°
2026-05-06 09:23 45.73524 10.25713 24992 ft 294 kts 234°
2026-05-06 09:23 45.72174 10.23498 24985 ft 294 kts 234°
2026-05-06 09:23 45.70832 10.21300 24981 ft 295 kts 234°
2026-05-06 09:24 45.69482 10.19092 24979 ft 295 kts 234°
2026-05-06 09:24 45.68148 10.16911 24979 ft 295 kts 234°
2026-05-06 09:24 45.66787 10.14685 24980 ft 296 kts 234°
2026-05-06 09:24 45.65434 10.12488 24982 ft 297 kts 233°
2026-05-06 09:25 45.63832 10.10596 24990 ft 304 kts 219°
2026-05-06 09:25 45.62027 10.09037 24986 ft 305 kts 217°
2026-05-06 09:25 45.60180 10.07465 24993 ft 305 kts 217°
2026-05-06 09:25 45.58368 10.05923 24994 ft 306 kts 217°
2026-05-06 09:26 45.56558 10.04378 24988 ft 306 kts 217°
2026-05-06 09:26 45.54724 10.02811 24982 ft 306 kts 217°
2026-05-06 09:26 45.52897 10.01247 24974 ft 307 kts 218°
2026-05-06 09:26 45.51076 9.99686 24966 ft 307 kts 217°
2026-05-06 09:27 45.49243 9.98116 24959 ft 308 kts 218°
2026-05-06 09:27 45.47421 9.96554 24951 ft 308 kts 217°
2026-05-06 09:27 45.45593 9.94987 24943 ft 308 kts 218°
2026-05-06 09:27 45.43743 9.93403 24936 ft 308 kts 218°
2026-05-06 09:28 45.41920 9.91842 24932 ft 308 kts 218°
2026-05-06 09:28 45.40085 9.90272 24934 ft 308 kts 218°
2026-05-06 09:28 45.38245 9.88699 24937 ft 308 kts 218°
2026-05-06 09:28 45.36410 9.87131 24942 ft 308 kts 218°
2026-05-06 09:29 45.34583 9.85570 24948 ft 308 kts 218°
2026-05-06 09:29 45.32753 9.84008 24958 ft 308 kts 218°
2026-05-06 09:29 45.30924 9.82448 24966 ft 307 kts 218°
2026-05-06 09:29 45.29090 9.80885 24972 ft 307 kts 218°
2026-05-06 09:30 45.27265 9.79331 24974 ft 307 kts 218°
2026-05-06 09:30 45.25446 9.77782 24972 ft 307 kts 218°
2026-05-06 09:30 45.23611 9.76222 24969 ft 308 kts 218°
2026-05-06 09:30 45.21783 9.74669 24967 ft 308 kts 218°
2026-05-06 09:31 45.19960 9.73120 24966 ft 308 kts 218°
2026-05-06 09:31 45.18110 9.71551 24968 ft 308 kts 218°
2026-05-06 09:31 45.16285 9.70003 24974 ft 308 kts 218°
2026-05-06 09:31 45.14463 9.68460 24979 ft 308 kts 218°
2026-05-06 09:32 45.12634 9.66911 24987 ft 307 kts 218°
2026-05-06 09:32 45.10783 9.65345 24995 ft 307 kts 218°
2026-05-06 09:32 45.08951 9.63797 24998 ft 308 kts 218°
2026-05-06 09:32 45.07117 9.62248 24997 ft 308 kts 218°
2026-05-06 09:33 45.05293 9.60708 24998 ft 309 kts 218°
2026-05-06 09:33 45.03460 9.59161 24999 ft 309 kts 218°
2026-05-06 09:33 45.01611 9.57603 24995 ft 310 kts 217°
2026-05-06 09:33 44.99763 9.56046 24994 ft 311 kts 217°
2026-05-06 09:34 44.97892 9.54472 24995 ft 312 kts 217°
2026-05-06 09:34 44.96033 9.52908 24996 ft 312 kts 217°
2026-05-06 09:34 44.94184 9.51354 24999 ft 313 kts 217°
2026-05-06 09:34 44.92296 9.49769 25000 ft 314 kts 217°
2026-05-06 09:35 44.90428 9.48201 25000 ft 315 kts 217°
2026-05-06 09:35 44.88605 9.46674 24998 ft 315 kts 217°
2026-05-06 09:35 44.86723 9.45098 24998 ft 315 kts 217°
2026-05-06 09:35 44.84853 9.43533 24999 ft 316 kts 217°
2026-05-06 09:36 44.82942 9.41933 24787 ft 317 kts 217°
2026-05-06 09:36 44.81054 9.40357 24373 ft 317 kts 217°
2026-05-06 09:36 44.79176 9.38793 23899 ft 318 kts 217°
2026-05-06 09:36 44.77260 9.37196 23394 ft 320 kts 217°
2026-05-06 09:37 44.75363 9.35617 22888 ft 320 kts 216°
2026-05-06 09:37 44.73458 9.34031 22375 ft 320 kts 216°
2026-05-06 09:37 44.71543 9.32438 21856 ft 321 kts 216°
2026-05-06 09:37 44.69638 9.30854 21338 ft 322 kts 215°
2026-05-06 09:38 44.67701 9.29245 20810 ft 321 kts 215°
2026-05-06 09:38 44.65802 9.27671 20292 ft 317 kts 215°
2026-05-06 09:38 44.63920 9.26112 19779 ft 313 kts 215°
2026-05-06 09:38 44.62070 9.24579 19273 ft 310 kts 215°
2026-05-06 09:39 44.60223 9.23040 18765 ft 306 kts 215°
2026-05-06 09:39 44.58425 9.21537 18270 ft 303 kts 215°
2026-05-06 09:39 44.56620 9.20030 17775 ft 300 kts 215°
2026-05-06 09:39 44.54852 9.18554 17291 ft 297 kts 214°
2026-05-06 09:40 44.53092 9.17086 16815 ft 296 kts 214°
2026-05-06 09:40 44.51321 9.15607 16337 ft 298 kts 214°
2026-05-06 09:40 44.47747 9.12625 15373 ft 301 kts 214°
2026-05-06 09:41 44.45978 9.11151 14898 ft 302 kts 214°
2026-05-06 09:41 44.44157 9.09636 14411 ft 303 kts 214°
2026-05-06 09:41 44.42294 9.08302 13884 ft 306 kts 201°
2026-05-06 09:41 44.40211 9.07832 13447 ft 305 kts 187°
2026-05-06 09:42 44.38112 9.07565 12960 ft 305 kts 187°
2026-05-06 09:42 44.35994 9.07299 12466 ft 307 kts 187°
2026-05-06 09:42 44.33845 9.07028 11968 ft 309 kts 187°
2026-05-06 09:42 44.31739 9.06760 11480 ft 308 kts 187°
2026-05-06 09:43 44.29601 9.06663 11042 ft 310 kts 175°
2026-05-06 09:43 44.27611 9.07770 10639 ft 309 kts 147°
2026-05-06 09:43 44.25921 9.09520 10235 ft 302 kts 143°
2026-05-06 09:43 44.24274 9.11285 9832 ft 294 kts 143°
2026-05-06 09:44 44.22689 9.12992 9443 ft 288 kts 143°
2026-05-06 09:44 44.21117 9.14679 9057 ft 281 kts 144°
2026-05-06 09:44 44.19581 9.16322 8681 ft 275 kts 144°
2026-05-06 09:44 44.18092 9.17909 8317 ft 269 kts 144°
2026-05-06 09:45 44.16619 9.19476 7957 ft 263 kts 144°
2026-05-06 09:45 44.15180 9.21002 7602 ft 256 kts 144°
2026-05-06 09:45 44.13804 9.22461 7261 ft 247 kts 145°
2026-05-06 09:45 44.12469 9.23873 7006 ft 234 kts 145°
2026-05-06 09:46 44.11225 9.25191 6901 ft 219 kts 145°
2026-05-06 09:46 44.10131 9.26693 6812 ft 225 kts 121°
2026-05-06 09:46 44.09915 9.28799 6788 ft 224 kts 76°
2026-05-06 09:46 44.10638 9.30679 6780 ft 223 kts 53°
2026-05-06 09:47 44.11578 9.32439 6716 ft 227 kts 52°
2026-05-06 09:47 44.12545 9.34217 6652 ft 231 kts 52°
2026-05-06 09:47 44.13534 9.35978 6552 ft 237 kts 46°
2026-05-06 09:47 44.14912 9.37108 6447 ft 230 kts
2026-05-06 09:48 44.16417 9.36721 6405 ft 218 kts 328°
2026-05-06 09:48 44.17676 9.35557 6353 ft 216 kts 322°
2026-05-06 09:48 44.18883 9.34351 6297 ft 215 kts 321°
2026-05-06 09:48 44.20083 9.33125 6241 ft 215 kts 321°
2026-05-06 09:49 44.21281 9.31889 6181 ft 212 kts 320°
2026-05-06 09:49 44.22464 9.30660 6124 ft 210 kts 320°
2026-05-06 09:49 44.23617 9.29457 6070 ft 208 kts 320°
2026-05-06 09:49 44.24773 9.28245 6016 ft 205 kts 320°
2026-05-06 09:50 44.25902 9.27059 5964 ft 203 kts 320°
2026-05-06 09:50 44.27001 9.25903 5965 ft 197 kts 320°
2026-05-06 09:50 44.28104 9.24744 5874 ft 194 kts 320°
2026-05-06 09:50 44.29167 9.23624 5718 ft 194 kts 320°
2026-05-06 09:51 44.30240 9.22490 5532 ft 196 kts 320°
2026-05-06 09:51 44.31348 9.21321 5318 ft 199 kts 320°
2026-05-06 09:51 44.32441 9.20166 4956 ft 197 kts 320°
2026-05-06 09:51 44.33478 9.18990 4630 ft 190 kts 310°
2026-05-06 09:52 44.34056 9.17418 4344 ft 178 kts 284°
2026-05-06 09:52 44.34416 9.15732 4124 ft 187 kts 284°
2026-05-06 09:52 44.34800 9.13952 3885 ft 189 kts 282°
2026-05-06 09:52 44.35107 9.12212 3621 ft 183 kts 281°
2026-05-06 09:53 44.35430 9.10519 3413 ft 179 kts 283°
2026-05-06 09:53 44.35789 9.08824 3334 ft 185 kts 284°
2026-05-06 09:53 44.36169 9.07106 3283 ft 183 kts 285°
2026-05-06 09:53 44.36548 9.05398 3106 ft 188 kts 285°
2026-05-06 09:54 44.36942 9.03612 2854 ft 196 kts 285°
2026-05-06 09:54 44.37345 9.01797 2560 ft 195 kts 285°
2026-05-06 09:54 44.37741 9.00012 2229 ft 189 kts 285°
2026-05-06 09:54 44.38114 8.98328 1938 ft 175 kts 284°
2026-05-06 09:55 44.38466 8.96756 1808 ft 166 kts 285°
2026-05-06 09:55 44.38813 8.95217 1532 ft 165 kts 285°
2026-05-06 09:55 44.39143 8.93723 1252 ft 152 kts 284°
2026-05-06 09:55 44.39449 8.92388 951 ft 143 kts 288°
2026-05-06 09:56 44.39757 8.91034 821 ft 149 kts 288°
2026-05-06 09:56 44.40086 8.89628 656 ft 152 kts 283°
2026-05-06 09:56 44.40400 8.88210 433 ft 156 kts 282°
2026-05-06 09:56 44.40690 8.86741 193 ft 160 kts 284°
2026-05-06 09:57 44.40978 8.85317 21 ft 139 kts 283°
2026-05-06 09:57 44.41150 8.84372 20 ft 67 kts 283°
2026-05-06 09:57 44.41251 8.83907 20 ft 35 kts 299°
2026-05-06 09:57 44.41360 8.83750 20 ft 16 kts 357°
2026-05-06 09:58 44.41416 8.83836 20 ft 12 kts 96°
2026-05-06 09:58 44.41398 8.83948 20 ft 11 kts 105°
2026-05-06 09:58 44.41374 8.84067 20 ft 13 kts 107°
2026-05-06 09:58 44.41347 8.84198 20 ft 14 kts 105°
2026-05-06 09:59 44.41320 8.84335 20 ft 15 kts 105°
2026-05-06 09:59 44.41289 8.84494 20 ft 18 kts 105°
2026-05-06 09:59 44.41253 8.84680 20 ft 21 kts 105°
2026-05-06 09:59 44.41217 8.84859 20 ft 15 kts 105°
2026-05-06 10:00 44.41273 8.84938 20 ft 12 kts 11°
2026-05-06 10:00 44.41346 8.84980 20 ft 10 kts 67°
2026-05-06 10:00 44.41324 8.85043 20 ft 5 kts 169°
2026-05-06 10:00 44.41290 8.85031 20 ft 3 kts 196°
2026-05-06 10:01 44.41289 8.85031 20 ft 0 kts 196°